Simultaneous Nadir Overpasses (SNOs) Predictions

Prediction of SNOs between GOES-17 and NOAA-21 Satellite Orbit:

Table of predicted SNOs for the next 14.0 days since TLE Epoch: 8/5/2023
Index Date Time (GOES-17) GOES-17 Lat,Lon NOAA-21 Lat,Lon Distance(km) Time Diff (sec)
1 08/06/2023 08:37:17 0.01,-104.73 0.74,-107.98 370.95 80
2 08/07/2023 08:15:52 0.01,-104.73 -0.29,-103.45 145.84 80
3 08/08/2023 20:37:46 -0.01,-104.70 -0.89,-108.75 460.37 80
4 08/09/2023 20:21:40 -0.01,-104.71 0.09,-104.21 56.71 80
5 08/12/2023 08:24:40 0.02,-104.73 0.08,-104.93 23.41 80
6 08/13/2023 08:03:14 0.02,-104.73 -0.97,-100.40 493.38 80
7 08/14/2023 20:25:07 -0.03,-104.70 -0.26,-105.69 112.84 80
8 08/15/2023 20:09:02 -0.03,-104.71 0.79,-101.16 404.45 80
9 08/17/2023 08:30:47 0.03,-104.74 0.42,-106.42 191.68 80
10 08/18/2023 08:09:22 0.03,-104.74 -0.64,-101.89 325.44 80
